Location: Unspecified
(0.0000°N, 0.0000°E)
Time: 18:58:57
(UTC+00:00)

Vanguard 2 Rocket - Pass Details

Date: 27 January 2020
Orbit: 554 x 3327 km, 32.9° (Epoch: 20 February)

Event Time Altitude Azimuth Distance (km) Brightness Sun altitude
Rises 14:31:58 0° 276° (W) 6,157 11.6 51.1°
Reaches altitude 10° 14:36:11 10° 268° (W) 5,475 11.6 50.2°
Maximum altitude 14:51:48 37° 207° (SSW) 4,381 11.7 46.8°
Drops below altitude 10° 15:09:30 10° 146° (SE) 6,083 11.1 42.8°
Sets 15:14:40 0° 138° (SE) 6,872 11.2 41.7°
